Location: Manhattan
(39.1840°N, 96.5710°W)
Time: 00:56:16
(UTC-05:00)

ISS - Visible Passes

Search period start: 25 March 2019 00:00
Search period end: 04 April 2019 00:00
Orbit: 408 x 411 km, 51.6° (Epoch: 25 March)

Date Brightness Start Highest point End Pass type
(mag) Time Alt. Az. Time Alt. Az. Time Alt. Az.
25 Mar -1.9 20:25:07 10° W 20:28:02 28° NNW 20:30:58 10° NNE visible
25 Mar -0.7 22:04:36 10° NNW 22:05:29 11° N 22:05:31 11° N visible
26 Mar -0.9 21:12:56 10° NW 21:14:33 13° NNW 21:16:10 10° NNE visible
27 Mar -1.1 20:21:25 10° WNW 20:23:39 17° NNW 20:25:52 10° NNE visible
28 Mar -0.8 21:10:02 10° NNW 21:10:20 10° N 21:10:40 10° N visible
29 Mar -1.0 20:18:07 10° NW 20:19:21 12° NNW 20:20:36 10° N visible
29 Mar -0.8 21:56:19 10° N 21:56:56 11° N 21:56:56 11° N visible
31 Mar -1.2 21:50:55 10° NNW 21:52:22 14° N 21:52:22 14° N visible
01 Apr -1.2 21:00:36 10° N 21:01:52 12° NNE 21:03:08 10° NE visible
01 Apr -0.4 22:36:07 10° NW 22:36:26 12° NW 22:36:26 12° NW visible
02 Apr -1.8 21:45:38 10° NNW 21:47:45 22° N 21:47:45 22° N visible
03 Apr -1.6 20:55:12 10° NNW 20:57:26 17° NNE 20:59:06 13° NE visible
03 Apr -0.7 22:31:06 10° NW 22:31:51 16° NW 22:31:51 16° NW visible
